Year,Month,Day,Hour,Minute,Value (Times are PST for temperature in C)
2013,07,07,00,00,18.60
2013,07,07,00,01,18.60
2013,07,07,00,02,18.60
2013,07,07,00,03,18.50
2013,07,07,00,04,18.50
2013,07,07,00,05,18.50
2013,07,07,00,06,18.40
2013,07,07,00,07,18.40
2013,07,07,00,08,18.40
2013,07,07,00,09,18.40
2013,07,07,00,10,18.30
2013,07,07,00,11,18.30
2013,07,07,00,12,18.30
2013,07,07,00,13,18.30
2013,07,07,00,14,18.30
2013,07,07,00,15,18.30
2013,07,07,00,16,18.20
2013,07,07,00,17,18.20
2013,07,07,00,18,18.20
2013,07,07,00,19,18.20
2013,07,07,00,20,18.20
2013,07,07,00,21,18.20
2013,07,07,00,22,18.20
2013,07,07,00,23,18.20
2013,07,07,00,24,18.20
2013,07,07,00,25,18.20
2013,07,07,00,26,18.20
2013,07,07,00,27,18.20
2013,07,07,00,28,18.20
2013,07,07,00,29,18.20
2013,07,07,00,30,18.20
2013,07,07,00,31,18.20
2013,07,07,00,32,18.20
2013,07,07,00,33,18.20
2013,07,07,00,34,18.20
2013,07,07,00,35,18.20
2013,07,07,00,36,18.20
2013,07,07,00,37,18.20
2013,07,07,00,38,18.20
2013,07,07,00,39,18.10
2013,07,07,00,40,18.10
2013,07,07,00,41,18.10
2013,07,07,00,42,18.10
2013,07,07,00,43,18.10
2013,07,07,00,44,18.10
2013,07,07,00,45,18.10
2013,07,07,00,46,18.10
2013,07,07,00,47,18.20
2013,07,07,00,48,18.20
2013,07,07,00,49,18.20
2013,07,07,00,50,18.20
2013,07,07,00,51,18.20
2013,07,07,00,52,18.20
2013,07,07,00,53,18.20
2013,07,07,00,54,18.20
2013,07,07,00,55,18.20
2013,07,07,00,56,18.20
2013,07,07,00,57,18.20
2013,07,07,00,58,18.20
2013,07,07,00,59,18.20
2013,07,07,01,00,18.20
2013,07,07,01,01,18.20
2013,07,07,01,02,18.20
2013,07,07,01,03,18.20
2013,07,07,01,04,18.20
2013,07,07,01,05,18.20
2013,07,07,01,06,18.20
2013,07,07,01,07,18.20
2013,07,07,01,08,18.20
2013,07,07,01,09,18.20
2013,07,07,01,10,18.20
2013,07,07,01,11,18.20
2013,07,07,01,12,18.20
2013,07,07,01,13,18.20
2013,07,07,01,14,18.20
2013,07,07,01,15,18.20
2013,07,07,01,16,18.20
2013,07,07,01,17,18.20
2013,07,07,01,18,18.20
2013,07,07,01,19,18.20
2013,07,07,01,20,18.20
2013,07,07,01,21,18.20
2013,07,07,01,22,18.20
2013,07,07,01,23,18.20
2013,07,07,01,24,18.20
2013,07,07,01,25,18.20
2013,07,07,01,26,18.20
2013,07,07,01,27,18.20
2013,07,07,01,28,18.20
2013,07,07,01,29,18.20
2013,07,07,01,30,18.10
2013,07,07,01,31,18.10
2013,07,07,01,32,18.10
2013,07,07,01,33,18.10
2013,07,07,01,34,18.10
2013,07,07,01,35,18.00
2013,07,07,01,36,17.90
2013,07,07,01,37,17.90
2013,07,07,01,38,17.80
2013,07,07,01,39,17.80
2013,07,07,01,40,17.80
2013,07,07,01,41,17.70
2013,07,07,01,42,17.60
2013,07,07,01,43,17.60
2013,07,07,01,44,17.60
2013,07,07,01,45,17.50
2013,07,07,01,46,17.50
2013,07,07,01,47,17.40
2013,07,07,01,48,17.40
2013,07,07,01,49,17.40
2013,07,07,01,50,17.30
2013,07,07,01,51,17.30
2013,07,07,01,52,17.30
2013,07,07,01,53,17.30
2013,07,07,01,54,17.30
2013,07,07,01,55,17.30
2013,07,07,01,56,17.20
2013,07,07,01,57,17.20
2013,07,07,01,58,17.20
2013,07,07,01,59,17.20
2013,07,07,02,00,17.20
2013,07,07,02,01,17.10
2013,07,07,02,02,17.10
2013,07,07,02,03,17.10
2013,07,07,02,04,17.10
2013,07,07,02,05,17.00
2013,07,07,02,06,17.00
2013,07,07,02,07,17.00
2013,07,07,02,08,17.00
2013,07,07,02,09,16.90
2013,07,07,02,10,16.90
2013,07,07,02,11,16.90
2013,07,07,02,12,16.90
2013,07,07,02,13,16.90
2013,07,07,02,14,16.90
2013,07,07,02,15,16.90
2013,07,07,02,16,16.90
2013,07,07,02,17,16.80
2013,07,07,02,18,16.80
2013,07,07,02,19,16.80
2013,07,07,02,20,16.80
2013,07,07,02,21,16.80
2013,07,07,02,22,16.80
2013,07,07,02,23,16.80
2013,07,07,02,24,16.70
2013,07,07,02,25,16.70
2013,07,07,02,26,16.70
2013,07,07,02,27,16.70
2013,07,07,02,28,16.70
2013,07,07,02,29,16.70
2013,07,07,02,30,16.70
2013,07,07,02,31,16.70
2013,07,07,02,32,16.70
2013,07,07,02,33,16.70
2013,07,07,02,34,16.70
2013,07,07,02,35,16.70
2013,07,07,02,36,16.70
2013,07,07,02,37,16.70
2013,07,07,02,38,16.70
2013,07,07,02,39,16.70
2013,07,07,02,40,16.70
2013,07,07,02,41,16.70
2013,07,07,02,42,16.60
2013,07,07,02,43,16.60
2013,07,07,02,44,16.60
2013,07,07,02,45,16.60
2013,07,07,02,46,16.60
2013,07,07,02,47,16.60
2013,07,07,02,48,16.60
2013,07,07,02,49,16.60
2013,07,07,02,50,16.60
2013,07,07,02,51,16.60
2013,07,07,02,52,16.50
2013,07,07,02,53,16.50
2013,07,07,02,54,16.50
2013,07,07,02,55,16.50
2013,07,07,02,56,16.50
2013,07,07,02,57,16.50
2013,07,07,02,58,16.50
2013,07,07,02,59,16.40
2013,07,07,03,00,16.40
2013,07,07,03,01,16.40
2013,07,07,03,02,16.40
2013,07,07,03,03,16.40
2013,07,07,03,04,16.40
2013,07,07,03,05,16.40
2013,07,07,03,06,16.40
2013,07,07,03,07,16.40
2013,07,07,03,08,16.40
2013,07,07,03,09,16.30
2013,07,07,03,10,16.30
2013,07,07,03,11,16.30
2013,07,07,03,12,16.30
2013,07,07,03,13,16.30
2013,07,07,03,14,16.30
2013,07,07,03,15,16.30
2013,07,07,03,16,16.30
2013,07,07,03,17,16.20
2013,07,07,03,18,16.20
2013,07,07,03,19,16.20
2013,07,07,03,20,16.20
2013,07,07,03,21,16.20
2013,07,07,03,22,16.20
2013,07,07,03,23,16.20
2013,07,07,03,24,16.20
2013,07,07,03,25,16.20
2013,07,07,03,26,16.20
2013,07,07,03,27,16.10
2013,07,07,03,28,16.10
2013,07,07,03,29,16.10
2013,07,07,03,30,16.10
2013,07,07,03,31,16.10
2013,07,07,03,32,16.10
2013,07,07,03,33,16.10
2013,07,07,03,34,16.10
2013,07,07,03,35,16.00
2013,07,07,03,36,16.00
2013,07,07,03,37,16.00
2013,07,07,03,38,16.00
2013,07,07,03,39,15.90
2013,07,07,03,40,15.90
2013,07,07,03,41,15.90
2013,07,07,03,42,15.90
2013,07,07,03,43,15.90
2013,07,07,03,44,15.90
2013,07,07,03,45,15.90
2013,07,07,03,46,15.90
2013,07,07,03,47,15.90
2013,07,07,03,48,15.90
2013,07,07,03,49,15.90
2013,07,07,03,50,15.90
2013,07,07,03,51,15.80
2013,07,07,03,52,15.80
2013,07,07,03,53,15.80
2013,07,07,03,54,15.80
2013,07,07,03,55,15.80
2013,07,07,03,56,15.80
2013,07,07,03,57,15.80
2013,07,07,03,58,15.80
2013,07,07,03,59,15.80
2013,07,07,04,00,15.80
2013,07,07,04,01,15.80
2013,07,07,04,02,15.80
2013,07,07,04,03,15.80
2013,07,07,04,04,15.80
2013,07,07,04,05,15.80
2013,07,07,04,06,15.80
2013,07,07,04,07,15.80
2013,07,07,04,08,15.80
2013,07,07,04,09,15.80
2013,07,07,04,10,15.80
2013,07,07,04,11,15.80
2013,07,07,04,12,15.80
2013,07,07,04,13,15.80
2013,07,07,04,14,15.70
2013,07,07,04,15,15.70
2013,07,07,04,16,15.70
2013,07,07,04,17,15.70
2013,07,07,04,18,15.70
2013,07,07,04,19,15.70
2013,07,07,04,20,15.60
2013,07,07,04,21,15.60
2013,07,07,04,22,15.60
2013,07,07,04,23,15.60
2013,07,07,04,24,15.60
2013,07,07,04,25,15.60
2013,07,07,04,26,15.50
2013,07,07,04,27,15.50
2013,07,07,04,28,15.50
2013,07,07,04,29,15.40
2013,07,07,04,30,15.40
2013,07,07,04,31,15.40
2013,07,07,04,32,15.40
2013,07,07,04,33,15.40
2013,07,07,04,34,15.30
2013,07,07,04,35,15.30
2013,07,07,04,36,15.30
2013,07,07,04,37,15.20
2013,07,07,04,38,15.20
2013,07,07,04,39,15.10
2013,07,07,04,40,15.00
2013,07,07,04,41,15.00
2013,07,07,04,42,15.00
2013,07,07,04,43,14.90
2013,07,07,04,44,14.90
2013,07,07,04,45,14.80
2013,07,07,04,46,14.80
2013,07,07,04,47,14.70
2013,07,07,04,48,14.70
2013,07,07,04,49,14.70
2013,07,07,04,50,14.60
2013,07,07,04,51,14.60
2013,07,07,04,52,14.60
2013,07,07,04,53,14.50
2013,07,07,04,54,14.50
2013,07,07,04,55,14.50
2013,07,07,04,56,14.40
2013,07,07,04,57,14.40
2013,07,07,04,58,14.40
2013,07,07,04,59,14.30
2013,07,07,05,00,14.30
2013,07,07,05,01,14.30
2013,07,07,05,02,14.20
2013,07,07,05,03,14.20
2013,07,07,05,04,14.20
2013,07,07,05,05,14.20
2013,07,07,05,06,14.10
2013,07,07,05,07,14.10
2013,07,07,05,08,14.10
2013,07,07,05,09,14.00
2013,07,07,05,10,14.00
2013,07,07,05,11,14.00
2013,07,07,05,12,14.00
2013,07,07,05,13,13.90
2013,07,07,05,14,13.90
2013,07,07,05,15,13.90
2013,07,07,05,16,13.90
2013,07,07,05,17,13.90
2013,07,07,05,18,13.90
2013,07,07,05,19,13.80
2013,07,07,05,20,13.80
2013,07,07,05,21,13.80
2013,07,07,05,22,13.80
2013,07,07,05,23,13.80
2013,07,07,05,24,13.80
2013,07,07,05,25,13.80
2013,07,07,05,26,13.80
2013,07,07,05,27,13.80
2013,07,07,05,28,13.70
2013,07,07,05,29,13.70
2013,07,07,05,30,13.70
2013,07,07,05,31,13.70
2013,07,07,05,32,13.70
2013,07,07,05,33,13.70
2013,07,07,05,34,13.70
2013,07,07,05,35,13.70
2013,07,07,05,36,13.70
2013,07,07,05,37,13.70
2013,07,07,05,38,13.70
2013,07,07,05,39,13.70
2013,07,07,05,40,13.70
2013,07,07,05,41,13.70
2013,07,07,05,42,13.70
2013,07,07,05,43,13.70
2013,07,07,05,44,13.70
2013,07,07,05,45,13.70
2013,07,07,05,46,13.60
2013,07,07,05,47,13.60
2013,07,07,05,48,13.60
2013,07,07,05,49,13.60
2013,07,07,05,50,13.60
2013,07,07,05,51,13.60
2013,07,07,05,52,13.60
2013,07,07,05,53,13.60
2013,07,07,05,54,13.60
2013,07,07,05,55,13.60
2013,07,07,05,56,13.60
2013,07,07,05,57,13.60
2013,07,07,05,58,13.60
2013,07,07,05,59,13.60
2013,07,07,06,00,13.60
2013,07,07,06,01,13.60
2013,07,07,06,02,13.60
2013,07,07,06,03,13.60
2013,07,07,06,04,13.60
2013,07,07,06,05,13.60
2013,07,07,06,06,13.60
2013,07,07,06,07,13.60
2013,07,07,06,08,13.60
2013,07,07,06,09,13.60
2013,07,07,06,10,13.60
2013,07,07,06,11,13.60
2013,07,07,06,12,13.60
2013,07,07,06,13,13.60
2013,07,07,06,14,13.60
2013,07,07,06,15,13.60
2013,07,07,06,16,13.60
2013,07,07,06,17,13.60
2013,07,07,06,18,13.60
2013,07,07,06,19,13.60
2013,07,07,06,20,13.60
2013,07,07,06,21,13.60
2013,07,07,06,22,13.60
2013,07,07,06,23,13.60
2013,07,07,06,24,13.60
2013,07,07,06,25,13.60
2013,07,07,06,26,13.60
2013,07,07,06,27,13.60
2013,07,07,06,28,13.60
2013,07,07,06,29,13.60
2013,07,07,06,30,13.60
2013,07,07,06,31,13.60
2013,07,07,06,32,13.60
2013,07,07,06,33,13.60
2013,07,07,06,34,13.60
2013,07,07,06,35,13.60
2013,07,07,06,36,13.60
2013,07,07,06,37,13.60
2013,07,07,06,38,13.60
2013,07,07,06,39,13.60
2013,07,07,06,40,13.60
2013,07,07,06,41,13.60
2013,07,07,06,42,13.60
2013,07,07,06,43,13.60
2013,07,07,06,44,13.60
2013,07,07,06,45,13.60
2013,07,07,06,46,13.60
2013,07,07,06,47,13.60
2013,07,07,06,48,13.50
2013,07,07,06,49,13.50
2013,07,07,06,50,13.50
2013,07,07,06,51,13.50
2013,07,07,06,52,13.50
2013,07,07,06,53,13.50
2013,07,07,06,54,13.50
2013,07,07,06,55,13.50
2013,07,07,06,56,13.60
2013,07,07,06,57,13.60
2013,07,07,06,58,13.60
2013,07,07,06,59,13.60
2013,07,07,07,00,13.60
2013,07,07,07,01,13.60
2013,07,07,07,02,13.60
2013,07,07,07,03,13.60
2013,07,07,07,04,13.60
2013,07,07,07,05,13.60
2013,07,07,07,06,13.70
2013,07,07,07,07,13.70
2013,07,07,07,08,13.70
2013,07,07,07,09,13.70
2013,07,07,07,10,13.80
2013,07,07,07,11,13.80
2013,07,07,07,12,13.80
2013,07,07,07,13,13.90
2013,07,07,07,14,13.90
2013,07,07,07,15,13.90
2013,07,07,07,16,14.00
2013,07,07,07,17,14.00
2013,07,07,07,18,14.10
2013,07,07,07,19,14.10
2013,07,07,07,20,14.20
2013,07,07,07,21,14.20
2013,07,07,07,22,14.30
2013,07,07,07,23,14.30
2013,07,07,07,24,14.30
2013,07,07,07,25,14.40
2013,07,07,07,26,14.40
2013,07,07,07,27,14.50
2013,07,07,07,28,14.50
2013,07,07,07,29,14.60
2013,07,07,07,30,14.60
2013,07,07,07,31,14.70
2013,07,07,07,32,14.70
2013,07,07,07,33,14.70
2013,07,07,07,34,14.80
2013,07,07,07,35,14.90
2013,07,07,07,36,15.00
2013,07,07,07,37,15.00
2013,07,07,07,38,15.00
2013,07,07,07,39,15.00
2013,07,07,07,40,15.10
2013,07,07,07,41,15.20
2013,07,07,07,42,15.30
2013,07,07,07,43,15.30
2013,07,07,07,44,15.40
2013,07,07,07,45,15.40
2013,07,07,07,46,15.50
2013,07,07,07,47,15.50
2013,07,07,07,48,15.60
2013,07,07,07,49,15.60
2013,07,07,07,50,15.60
2013,07,07,07,51,15.70
2013,07,07,07,52,15.70
2013,07,07,07,53,15.80
2013,07,07,07,54,15.80
2013,07,07,07,55,15.80
2013,07,07,07,56,15.80
2013,07,07,07,57,15.90
2013,07,07,07,58,15.90
2013,07,07,07,59,16.00
2013,07,07,08,00,16.10
2013,07,07,08,01,16.20
2013,07,07,08,02,16.30
2013,07,07,08,03,16.30
2013,07,07,08,04,16.40
2013,07,07,08,05,16.50
2013,07,07,08,06,16.60
2013,07,07,08,07,16.70
2013,07,07,08,08,16.80
2013,07,07,08,09,16.90
2013,07,07,08,10,17.00
2013,07,07,08,11,17.00
2013,07,07,08,12,17.10
2013,07,07,08,13,17.20
2013,07,07,08,14,17.30
2013,07,07,08,15,17.30
2013,07,07,08,16,17.30
2013,07,07,08,17,17.40
2013,07,07,08,18,17.40
2013,07,07,08,19,17.40
2013,07,07,08,20,17.40
2013,07,07,08,21,17.40
2013,07,07,08,22,17.50
2013,07,07,08,23,17.50
2013,07,07,08,24,17.60
2013,07,07,08,25,17.60
2013,07,07,08,26,17.60
2013,07,07,08,27,17.70
2013,07,07,08,28,17.70
2013,07,07,08,29,17.80
2013,07,07,08,30,17.80
2013,07,07,08,31,17.80
2013,07,07,08,32,17.90
2013,07,07,08,33,17.90
2013,07,07,08,34,17.90
2013,07,07,08,35,17.90
2013,07,07,08,36,18.00
2013,07,07,08,37,18.00
2013,07,07,08,38,18.00
2013,07,07,08,39,18.00
2013,07,07,08,40,18.00
2013,07,07,08,41,18.00
2013,07,07,08,42,18.00
2013,07,07,08,43,18.00
2013,07,07,08,44,18.10
2013,07,07,08,45,18.10
2013,07,07,08,46,18.10
2013,07,07,08,47,18.10
2013,07,07,08,48,18.20
2013,07,07,08,49,18.10
2013,07,07,08,50,18.10
2013,07,07,08,51,18.10
2013,07,07,08,52,18.00
2013,07,07,08,53,18.00
2013,07,07,08,54,18.00
2013,07,07,08,55,18.00
2013,07,07,08,56,18.10
2013,07,07,08,57,18.10
2013,07,07,08,58,18.10
2013,07,07,08,59,18.10
2013,07,07,09,00,18.10
2013,07,07,09,01,18.10
2013,07,07,09,02,18.10
2013,07,07,09,03,18.10
2013,07,07,09,04,18.10
2013,07,07,09,05,18.20
2013,07,07,09,06,18.20
2013,07,07,09,07,18.20
2013,07,07,09,08,18.20
2013,07,07,09,09,18.20
2013,07,07,09,10,18.30
2013,07,07,09,11,18.20
2013,07,07,09,12,18.20
2013,07,07,09,13,18.20
2013,07,07,09,14,18.20
2013,07,07,09,15,18.20
2013,07,07,09,16,18.20
2013,07,07,09,17,18.20
2013,07,07,09,18,18.20
2013,07,07,09,19,18.20
2013,07,07,09,20,18.20
2013,07,07,09,21,18.20
2013,07,07,09,22,18.20
2013,07,07,09,23,18.30
2013,07,07,09,24,18.30
2013,07,07,09,25,18.30
2013,07,07,09,26,18.40
2013,07,07,09,27,18.40
2013,07,07,09,28,18.50
2013,07,07,09,29,18.60
2013,07,07,09,30,18.60
2013,07,07,09,31,18.70
2013,07,07,09,32,18.80
2013,07,07,09,33,18.80
2013,07,07,09,34,18.80
2013,07,07,09,35,18.80
2013,07,07,09,36,18.80
2013,07,07,09,37,18.80
2013,07,07,09,38,18.80
2013,07,07,09,39,18.80
2013,07,07,09,40,18.80
2013,07,07,09,41,18.90
2013,07,07,09,42,19.00
2013,07,07,09,43,19.00
2013,07,07,09,44,19.10
2013,07,07,09,45,19.10
2013,07,07,09,46,19.20
2013,07,07,09,47,19.30
2013,07,07,09,48,19.30
2013,07,07,09,49,19.40
2013,07,07,09,50,19.50
2013,07,07,09,51,19.50
2013,07,07,09,52,19.60
2013,07,07,09,53,19.60
2013,07,07,09,54,19.60
2013,07,07,09,55,19.70
2013,07,07,09,56,19.70
2013,07,07,09,57,19.70
2013,07,07,09,58,19.60
2013,07,07,09,59,19.50
2013,07,07,10,00,19.40
2013,07,07,10,01,19.40
2013,07,07,10,02,19.50
2013,07,07,10,03,19.50
2013,07,07,10,04,19.60
2013,07,07,10,05,19.60
2013,07,07,10,06,19.70
2013,07,07,10,07,19.70
2013,07,07,10,08,19.70
2013,07,07,10,09,19.70
2013,07,07,10,10,19.70
2013,07,07,10,11,19.80
2013,07,07,10,12,19.80
2013,07,07,10,13,19.80
2013,07,07,10,14,19.70
2013,07,07,10,15,19.70
2013,07,07,10,16,19.70
2013,07,07,10,17,19.60
2013,07,07,10,18,19.60
2013,07,07,10,19,19.60
2013,07,07,10,20,19.50
2013,07,07,10,21,19.40
2013,07,07,10,22,19.40
2013,07,07,10,23,19.40
2013,07,07,10,24,19.40
2013,07,07,10,25,19.50
2013,07,07,10,26,19.50
2013,07,07,10,27,19.60
2013,07,07,10,28,19.60
2013,07,07,10,29,19.60
2013,07,07,10,30,19.60
2013,07,07,10,31,19.50
2013,07,07,10,32,19.40
2013,07,07,10,33,19.30
2013,07,07,10,34,19.30
2013,07,07,10,35,19.20
2013,07,07,10,36,19.20
2013,07,07,10,37,19.20
2013,07,07,10,38,19.20
2013,07,07,10,39,19.20
2013,07,07,10,40,19.20
2013,07,07,10,41,19.20
2013,07,07,10,42,19.10
2013,07,07,10,43,19.00
2013,07,07,10,44,19.00
2013,07,07,10,45,19.10
2013,07,07,10,46,19.10
2013,07,07,10,47,19.20
2013,07,07,10,48,19.20
2013,07,07,10,49,19.20
2013,07,07,10,50,19.20
2013,07,07,10,51,19.20
2013,07,07,10,52,19.20
2013,07,07,10,53,19.30
2013,07,07,10,54,19.30
2013,07,07,10,55,19.40
2013,07,07,10,56,19.40
2013,07,07,10,57,19.50
2013,07,07,10,58,19.60
2013,07,07,10,59,19.60
2013,07,07,11,00,19.60
2013,07,07,11,01,19.60
2013,07,07,11,02,19.60
2013,07,07,11,03,19.60
2013,07,07,11,04,19.50
2013,07,07,11,05,19.30
2013,07,07,11,06,19.30
2013,07,07,11,07,19.30
2013,07,07,11,08,19.30
2013,07,07,11,09,19.30
2013,07,07,11,10,19.30
2013,07,07,11,11,19.30
2013,07,07,11,12,19.40
2013,07,07,11,13,19.40
2013,07,07,11,14,19.50
2013,07,07,11,15,19.60
2013,07,07,11,16,19.70
2013,07,07,11,17,19.80
2013,07,07,11,18,19.90
2013,07,07,11,19,20.00
2013,07,07,11,20,20.10
2013,07,07,11,21,20.10
2013,07,07,11,22,20.00
2013,07,07,11,23,20.00
2013,07,07,11,24,20.00
2013,07,07,11,25,20.10
2013,07,07,11,26,20.20
2013,07,07,11,27,20.20
2013,07,07,11,28,20.20
2013,07,07,11,29,20.30
2013,07,07,11,30,20.30
2013,07,07,11,31,20.30
2013,07,07,11,32,20.30
2013,07,07,11,33,20.30
2013,07,07,11,34,20.30
2013,07,07,11,35,20.30
2013,07,07,11,36,20.40
2013,07,07,11,37,20.40
2013,07,07,11,38,20.40
2013,07,07,11,39,20.40
2013,07,07,11,40,20.40
2013,07,07,11,41,20.40
2013,07,07,11,42,20.50
2013,07,07,11,43,20.50
2013,07,07,11,44,20.50
2013,07,07,11,45,20.50
2013,07,07,11,46,20.50
2013,07,07,11,47,20.50
2013,07,07,11,48,20.50
2013,07,07,11,49,20.50
2013,07,07,11,50,20.40
2013,07,07,11,51,20.40
2013,07,07,11,52,20.30
2013,07,07,11,53,20.40
2013,07,07,11,54,20.40
2013,07,07,11,55,20.60
2013,07,07,11,56,20.60
2013,07,07,11,57,20.70
2013,07,07,11,58,20.70
2013,07,07,11,59,20.80
2013,07,07,12,00,20.80
2013,07,07,12,01,20.90
2013,07,07,12,02,20.90
2013,07,07,12,03,21.00
2013,07,07,12,04,21.00
2013,07,07,12,05,21.00
2013,07,07,12,06,21.00
2013,07,07,12,07,21.00
2013,07,07,12,08,21.10
2013,07,07,12,09,21.10
2013,07,07,12,10,21.00
2013,07,07,12,11,21.00
2013,07,07,12,12,20.90
2013,07,07,12,13,20.80
2013,07,07,12,14,20.80
2013,07,07,12,15,20.90
2013,07,07,12,16,20.90
2013,07,07,12,17,20.90
2013,07,07,12,18,20.90
2013,07,07,12,19,21.00
2013,07,07,12,20,21.00
2013,07,07,12,21,21.10
2013,07,07,12,22,21.10
2013,07,07,12,23,21.20
2013,07,07,12,24,21.20
2013,07,07,12,25,21.10
2013,07,07,12,26,21.00
2013,07,07,12,27,20.90
2013,07,07,12,28,21.00
2013,07,07,12,29,20.90
2013,07,07,12,30,20.80
2013,07,07,12,31,20.70
2013,07,07,12,32,20.60
2013,07,07,12,33,20.60
2013,07,07,12,34,20.60
2013,07,07,12,35,20.60
2013,07,07,12,36,20.50
2013,07,07,12,37,20.40
2013,07,07,12,38,20.40
2013,07,07,12,39,20.50
2013,07,07,12,40,20.50
2013,07,07,12,41,20.40
2013,07,07,12,42,20.50
2013,07,07,12,43,20.50
2013,07,07,12,44,20.40
2013,07,07,12,45,20.40
2013,07,07,12,46,20.40
2013,07,07,12,47,20.40
2013,07,07,12,48,20.40
2013,07,07,12,49,20.40
2013,07,07,12,50,20.40
2013,07,07,12,51,20.40
2013,07,07,12,52,20.30
2013,07,07,12,53,20.30
2013,07,07,12,54,20.30
2013,07,07,12,55,20.30
2013,07,07,12,56,20.30
2013,07,07,12,57,20.40
2013,07,07,12,58,20.30
2013,07,07,12,59,20.20
2013,07,07,13,00,20.10
2013,07,07,13,01,20.10
2013,07,07,13,02,20.10
2013,07,07,13,03,20.10
2013,07,07,13,04,20.10
2013,07,07,13,05,20.10
2013,07,07,13,06,20.10
2013,07,07,13,07,20.10
2013,07,07,13,08,20.20
2013,07,07,13,09,20.20
2013,07,07,13,10,20.30
2013,07,07,13,11,20.50
2013,07,07,13,12,20.60
2013,07,07,13,13,20.70
2013,07,07,13,14,20.70
2013,07,07,13,15,20.70
2013,07,07,13,16,20.70
2013,07,07,13,17,20.60
2013,07,07,13,18,20.70
2013,07,07,13,19,20.70
2013,07,07,13,20,20.70
2013,07,07,13,21,20.80
2013,07,07,13,22,20.90
2013,07,07,13,23,21.00
2013,07,07,13,24,21.00
2013,07,07,13,25,21.10
2013,07,07,13,26,21.10
2013,07,07,13,27,20.80
2013,07,07,13,28,20.60
2013,07,07,13,29,20.40
2013,07,07,13,30,20.20
2013,07,07,13,31,20.20
2013,07,07,13,32,20.10
2013,07,07,13,33,20.00
2013,07,07,13,34,20.00
2013,07,07,13,35,19.90
2013,07,07,13,36,19.90
2013,07,07,13,37,19.70
2013,07,07,13,38,19.70
2013,07,07,13,39,19.70
2013,07,07,13,40,19.80
2013,07,07,13,41,19.90
2013,07,07,13,42,20.00
2013,07,07,13,43,20.10
2013,07,07,13,44,20.20
2013,07,07,13,45,20.30
2013,07,07,13,46,20.40
2013,07,07,13,47,20.40
2013,07,07,13,48,20.40
2013,07,07,13,49,20.40
2013,07,07,13,50,20.50
2013,07,07,13,51,20.60
2013,07,07,13,52,20.70
2013,07,07,13,53,20.70
2013,07,07,13,54,20.70
2013,07,07,13,55,20.70
2013,07,07,13,56,20.70
2013,07,07,13,57,20.70
2013,07,07,13,58,20.70
2013,07,07,13,59,20.70
2013,07,07,14,00,20.80
2013,07,07,14,01,20.90
2013,07,07,14,02,20.90
2013,07,07,14,03,20.90
2013,07,07,14,04,20.80
2013,07,07,14,05,20.80
2013,07,07,14,06,20.80
2013,07,07,14,07,20.80
2013,07,07,14,08,20.80
2013,07,07,14,09,20.80
2013,07,07,14,10,20.80
2013,07,07,14,11,20.80
2013,07,07,14,12,20.80
2013,07,07,14,13,20.80
2013,07,07,14,14,20.70
2013,07,07,14,15,20.70
2013,07,07,14,16,20.70
2013,07,07,14,17,20.70
2013,07,07,14,18,20.80
2013,07,07,14,19,20.90
2013,07,07,14,20,21.00
2013,07,07,14,21,21.10
2013,07,07,14,22,21.10
2013,07,07,14,23,21.10
2013,07,07,14,24,21.20
2013,07,07,14,25,21.30
2013,07,07,14,26,21.40
2013,07,07,14,27,21.50
2013,07,07,14,28,21.60
2013,07,07,14,29,21.70
2013,07,07,14,30,21.70
2013,07,07,14,31,21.70
2013,07,07,14,32,21.60
2013,07,07,14,33,21.60
2013,07,07,14,34,21.70
2013,07,07,14,35,21.60
2013,07,07,14,36,21.50
2013,07,07,14,37,21.40
2013,07,07,14,38,21.40
2013,07,07,14,39,21.30
2013,07,07,14,40,21.30
2013,07,07,14,41,21.20
2013,07,07,14,42,21.10
2013,07,07,14,43,21.10
2013,07,07,14,44,21.10
2013,07,07,14,45,21.10
2013,07,07,14,46,21.20
2013,07,07,14,47,21.30
2013,07,07,14,48,21.40
2013,07,07,14,49,21.40
2013,07,07,14,50,21.40
2013,07,07,14,51,21.40
2013,07,07,14,52,21.50
2013,07,07,14,53,21.60
2013,07,07,14,54,21.70
2013,07,07,14,55,21.70
2013,07,07,14,56,21.80
2013,07,07,14,57,21.80
2013,07,07,14,58,21.70
2013,07,07,14,59,21.50
2013,07,07,15,00,21.40
2013,07,07,15,01,21.40
2013,07,07,15,02,21.40
2013,07,07,15,03,21.30
2013,07,07,15,04,21.30
2013,07,07,15,05,21.40
2013,07,07,15,06,21.50
2013,07,07,15,07,21.70
2013,07,07,15,08,21.90
2013,07,07,15,09,22.00
2013,07,07,15,10,22.10
2013,07,07,15,11,22.30
2013,07,07,15,12,22.40
2013,07,07,15,13,22.50
2013,07,07,15,14,22.60
2013,07,07,15,15,22.70
2013,07,07,15,16,22.80
2013,07,07,15,17,22.90
2013,07,07,15,18,22.90
2013,07,07,15,19,22.90
2013,07,07,15,20,22.80
2013,07,07,15,21,22.90
2013,07,07,15,22,22.90
2013,07,07,15,23,22.90
2013,07,07,15,24,22.90
2013,07,07,15,25,22.90
2013,07,07,15,26,22.80
2013,07,07,15,27,22.70
2013,07,07,15,28,22.60
2013,07,07,15,29,22.60
2013,07,07,15,30,22.60
2013,07,07,15,31,22.70
2013,07,07,15,32,22.80
2013,07,07,15,33,22.80
2013,07,07,15,34,22.80
2013,07,07,15,35,22.90
2013,07,07,15,36,22.80
2013,07,07,15,37,22.80
2013,07,07,15,38,22.80
2013,07,07,15,39,22.80
2013,07,07,15,40,22.80
2013,07,07,15,41,22.80
2013,07,07,15,42,22.70
2013,07,07,15,43,22.80
2013,07,07,15,44,22.80
2013,07,07,15,45,22.90
2013,07,07,15,46,22.90
2013,07,07,15,47,22.90
2013,07,07,15,48,22.90
2013,07,07,15,49,22.80
2013,07,07,15,50,22.80
2013,07,07,15,51,22.80
2013,07,07,15,52,22.70
2013,07,07,15,53,22.70
2013,07,07,15,54,22.60
2013,07,07,15,55,22.60
2013,07,07,15,56,22.60
2013,07,07,15,57,22.60
2013,07,07,15,58,22.60
2013,07,07,15,59,22.70
2013,07,07,16,00,22.90
2013,07,07,16,01,23.00
2013,07,07,16,02,23.20
2013,07,07,16,03,23.30
2013,07,07,16,04,23.40
2013,07,07,16,05,23.60
2013,07,07,16,06,23.70
2013,07,07,16,07,23.70
2013,07,07,16,08,23.90
2013,07,07,16,09,24.00
2013,07,07,16,10,24.20
2013,07,07,16,11,24.30
2013,07,07,16,12,24.40
2013,07,07,16,13,24.60
2013,07,07,16,14,24.60
2013,07,07,16,15,24.70
2013,07,07,16,16,24.70
2013,07,07,16,17,24.70
2013,07,07,16,18,24.60
2013,07,07,16,19,24.60
2013,07,07,16,20,24.50
2013,07,07,16,21,24.40
2013,07,07,16,22,24.40
2013,07,07,16,23,24.30
2013,07,07,16,24,24.30
2013,07,07,16,25,24.30
2013,07,07,16,26,24.30
2013,07,07,16,27,24.30
2013,07,07,16,28,24.40
2013,07,07,16,29,24.50
2013,07,07,16,30,24.60
2013,07,07,16,31,24.60
2013,07,07,16,32,24.60
2013,07,07,16,33,24.60
2013,07,07,16,34,24.60
2013,07,07,16,35,24.70
2013,07,07,16,36,24.70
2013,07,07,16,37,24.80
2013,07,07,16,38,24.80
2013,07,07,16,39,24.80
2013,07,07,16,40,24.80
2013,07,07,16,41,24.80
2013,07,07,16,42,24.90
2013,07,07,16,43,24.90
2013,07,07,16,44,24.90
2013,07,07,16,45,25.00
2013,07,07,16,46,24.90
2013,07,07,16,47,25.00
2013,07,07,16,48,25.10
2013,07,07,16,49,25.10
2013,07,07,16,50,25.20
2013,07,07,16,51,25.20
2013,07,07,16,52,25.20
2013,07,07,16,53,25.20
2013,07,07,16,54,25.10
2013,07,07,16,55,25.10
2013,07,07,16,56,25.00
2013,07,07,16,57,25.00
2013,07,07,16,58,25.00
2013,07,07,16,59,25.00
2013,07,07,17,00,25.00
2013,07,07,17,01,25.00
2013,07,07,17,02,25.00
2013,07,07,17,03,25.00
2013,07,07,17,04,25.10
2013,07,07,17,05,25.10
2013,07,07,17,06,25.10
2013,07,07,17,07,25.20
2013,07,07,17,08,25.20
2013,07,07,17,09,25.30
2013,07,07,17,10,25.40
2013,07,07,17,11,25.40
2013,07,07,17,12,25.50
2013,07,07,17,13,25.60
2013,07,07,17,14,25.70
2013,07,07,17,15,25.70
2013,07,07,17,16,25.70
2013,07,07,17,17,25.70
2013,07,07,17,18,25.70
2013,07,07,17,19,25.80